Weather in Bratkovo

Russia / Tver Oblast     56°33′37″N   34°40′29″E
temp.,
°C
wind,
m/s
gust,
m/s
humid.,
%
clouds,
%
prec.,
mm/h
press.,
hPa
HPBL,
m
18 april, sun
sun1800:00+8ne41262100 0.0 1022517
03:00+5ne4137060 0.0 1022473
06:00+4ne514771 0.0 1022489
09:00+8ene610614 0.0 1022810
12:00+12ene68445 0.0 10221490
15:00+13ene68395 0.0 10222047
18:00+12ene594521 0.0 10222021
21:00+9ene3961100 0.0 1023422
19 april, mon
mon1900:00+8ene2673100 0.0 1024427
03:00+6ne4108085 0.0 1025547
06:00+4ne499093 0.0 1026407
09:00+5ene4881100 0.0 1026560
12:00+8ene5767100 0.0 10261128
15:00+8ene4760100 0.0 10261324
18:00+7ene4860100 0.0 10251257
21:00+5e386993 0.0 1026635
20 april, tue
tue2000:00+4ene3107392 0.0 1025659
03:00+2ene411685 0.0 1024498
06:00+1ene41069100 0.0 1024539
09:00+2ene51082100 0.1 1023652
12:00+2ene51196100 1.0 1022624
15:00+3ene41195100 5.4 1021792
18:00+5e41189100 0.1 1018890
21:00+4ene51297100 0.8 1016968
21 april, wed
wed2100:00+5ene61390100 1.4 10121044
03:00+2ene61597100 6.0 1008927
06:000ene61598100 5.7 1004711
09:00+3ene51398100 9.7 1002874
12:00+5ese61196100 0.5 1001922
15:00+5ese31099100 1.4 1000574
18:00+5ssw5898100 1.0 1001574
21:00+2sw61292100 1.1 1005861
22 april, thu
thu2200:00+2sw51095100 0.1 10081006
03:00+2sw51197100 0.3 1011888
06:00+3sw41098100 0.3 1013873
09:00+5sw4993100 0.4 1016738
12:00+8sw4775100 0.1 10181064
15:00+11sw366249 0.3 10191471
18:00+10sw257642 0.4 1020310
21:00+6sw119199 0.6 102310